Regional Weather Roundup
Issued by NWS State College, PA

Home | Current Version | Previous Version | Graphics & Text | Print | Product List | Glossary On
Versions: 1 2 3 4 5 6 7 8 9 10 11 12 13 14 15 16 17 18 19 20 21 22 23 24 25 26 27 28 29 30 31 32 33 34 35 36 37 38 39 40 41 42 43 44 45 46 47 48 49 50
984
ASUS41 KCTP 282103
RWRCTP

REGIONAL WEATHER ROUNDUP
NATIONAL WEATHER SERVICE STATE COLLEGE PA
500 PM EDT FRI APR 28 2017

Note: "fair" indicates few or no clouds below 12,000 feet with no
significant weather and/or obstructions to visibility.

* = STATION THAT DOES NOT REPORT PRECIPITATION /E.G. RAIN...SNOW...ETC/
    THUNDER OR FOG.

PAZ002>004-007>009-013>016-020>023-029>032-282200-
WESTERN PENNSYLVANIA

CITY           SKY/WX    TMP DP  RH WIND       PRES   REMARKS
ERIE           CLOUDY    52  42  69 NW6       30.04R
MEADVILLE      CLOUDY    63  47  55 VRB3      30.04F
FRANKLIN*      CLOUDY    63  41  45 S6        30.07R
NEW CASTLE     FAIR      66  48  52 E3        30.04F
BEAVER COUNTY    N/A     68  41  37 CALM      30.03F
BUTLER*        CLOUDY    68  45  42 CALM      30.04S
PITTSBURGH INT CLOUDY    72  45  37 NW3       30.02S
PITTSBURGH     CLOUDY    70  47  43 VRB5      30.01F
INDIANA*       SUNNY     70  43  37 NW5       30.07R
LATROBE        PTSUNNY   72  48  43 NW5       30.03S
WASHINGTON CO* CLOUDY    73  48  40 CALM      30.03F
$$

PAZ004>006-010>012-017>019-024>028-033>037-041-042-045-046-049>053-282200-
CENTRAL PENNSYLVANIA

CITY           SKY/WX    TMP DP  RH WIND       PRES   REMARKS
BRADFORD       CLOUDY    66  33  29 SW9G17    30.06R
DUBOIS         CLOUDY    66  42  41 W8        30.06R
CLEARFIELD     CLOUDY    72  38  29 CALM      30.03F
JOHNSTOWN      MOSUNNY   72  41  32 W6        30.05R
ALTOONA        SUNNY     81  43  26 SW8       30.02F
STATE COLLEGE  SUNNY     75  45  33 S6        30.03F
WILLIAMSPORT   NOT AVBL
SELINSGROVE    MOSUNNY   78  49  35 CALM      30.01F
FT INDIANTOWN  SUNNY     80  45  29 S8        30.00F
CAPITAL CITY   SUNNY     82  45  27 W6        29.99F
HARRISBURG     MOSUNNY   82  46  28 CALM      29.99F
YORK           SUNNY     81  48  31 SW5       30.01S
$$

PAZ038>040-043-044-047-048-054-055-060>062-067>071-282200-
EASTERN PENNSYLVANIA

CITY           SKY/WX    TMP DP  RH WIND       PRES   REMARKS
SCRANTON       MOSUNNY   77  43  29 SW13      30.01R
MOUNT POCONO   SUNNY     76  30  18 W15G22    30.04S
ALLENTOWN      PTSUNNY   81  47  30 SW12      29.99F
QUAKERTOWN*    PTCLDY    82  46  28 W9        30.01F
READING        SUNNY     82  50  32 S5        29.99F
LANCASTER      SUNNY     80  51  36 W8        30.00F
COATESVILLE    CLEAR     81  48  32 CALM      30.03F
POTTSTOWN      MOSUNNY   81  43  26 SW9       30.02F
BLUE BELL      MOSUNNY   79  50  36 W5        30.02F
DOYLESTOWN     CLOUDY    81  43  26 SW9       30.00
WILLOW GROVE   NOT AVBL
NORTH PHILA    CLOUDY    84  52  33 SW9       30.01S
PHILADELPHIA   PTSUNNY   83  52  34 W8        30.00F
$$




USA.gov is the U.S. government's official web portal to all federal, state and local government web resources and services.